Zurück zum Katalog

STARLINK-1502

AktivKommunikationVLEO
NORAD 45764·PAYLOAD·🇺🇸 United States

Gestartet Jun 13, 2020 von Cape Canaveral Space Force Station

Loading…

Nächste Überflüge (nächste 24 Stunden)

TLE

AktuellSource: CelesTrak SupGP

Epoche: Sep 14, 2026, 21:26 UTC

1 45764C 20038AL  26257.89354167  .00042828  00000+0  27279-3 0  2574
2 45764  53.0389   1.3085 0002162 318.4430 194.0932 15.75711188    10

Verfolge STARLINK-1502 in Echtzeit mit AllMySat

Download on the App Store